Change the Weather History Date:

Tuesday, February 26, 2013

  Actual Average Record
Temperature  
Mean Temperature 38 °F -  
Max Temperature 54 °F 48 °F - ()
Min Temperature 23 °F 30 °F - ()
Degree Days  
Heating Degree Days 26    
Moisture  
Dew Point 26 °F    
Average Humidity 61    
Maximum Humidity 93    
Minimum Humidity 22    
Precipitation  
Precipitation 0.00 in 0.05 in - ()
Sea Level Pressure  
Sea Level Pressure 30.20 in    
Wind  
Wind Speed 2 mph ()    
Max Wind Speed 6 mph    
Max Gust Speed -    
Visibility 9.0 miles    
Events      
T = Trace of Precipitation, MM = Missing Value Source: Averaged Metar Reports

Daily Weather History Graph

Daily Weather History Graph

Search for Another Location

Airport or City:

Trip Planner

Search our weather history database for the weather conditions in past years. The results will help you decide how hot, cold, wet, or windy it might be!

Date:

Astronomy

Feb. 26, 2013 Rise Set
Actual Time 5:59 AM EET 5:10 PM EET
Civil Twilight 5:32 AM EET 5:37 PM EET
Nautical Twilight 5:01 AM EET 6:09 PM EET
Astronomical Twilight 4:29 AM EET 6:40 PM EET
Moon 6:04 PM EET (2/26) 5:50 AM EET (2/26)
Length of Visible Light 12h 05m
Length of Day
11h 11m
Full, 100% of the Moon is Illuminated
Feb 26
Full
Mar 4
Last Quarter
Mar 11
New
Mar 19
First Quarter
Mar 27
Full

Hourly Weather History & Observations

Time (EET) Temp. Windchill Dew Point Humidity Pressure Visibility Wind Dir Wind Speed Gust Speed Precip Events Conditions
12:50 AM 33.8 °F 30.8 °F 26.6 °F 75% 30.30 in - North 3.5 mph - N/A   Clear
1:50 AM 33.8 °F 29.6 °F 26.6 °F 75% 30.30 in - East 4.6 mph - N/A   Clear
2:00 AM 35 °F - 26 °F 59%  in 9 mi East 4.6 mph - -  
2:50 AM 26.6 °F - 24.8 °F 93% 30.30 in - Calm Calm - N/A   Clear
3:50 AM 26.6 °F - 24.8 °F 93% 30.27 in - Calm Calm - N/A   Clear
4:50 AM 26.6 °F - 24.8 °F 93% 30.27 in - Calm Calm - N/A   Clear
5:50 AM 26.6 °F - 23.0 °F 86% 30.27 in - Calm Calm - N/A   Clear
6:50 AM 26.6 °F - 24.8 °F 93% 30.27 in - Calm Calm - N/A   Clear
7:50 AM 35.6 °F - 28.4 °F 75% 30.27 in - Calm Calm - N/A   Clear
8:00 AM 36 °F - 28 °F 63%  in 9 mi Calm Calm - -   Clear
8:50 AM 39.2 °F - 26.6 °F 61% 30.27 in - Variable 1.2 mph - N/A   Clear
9:50 AM 44.6 °F - 28.4 °F 53% 30.24 in - Variable 1.2 mph - N/A   Clear
10:50 AM 46.4 °F 45.2 °F 26.6 °F 46% 30.24 in - Variable 3.5 mph - N/A   Clear
11:50 AM 48.2 °F - 26.6 °F 43% 30.21 in - Variable 4.6 mph - N/A   Clear
12:50 PM 51.8 °F - 26.6 °F 38% 30.18 in - SSE 3.5 mph - N/A   Clear
1:50 PM 51.8 °F - 24.8 °F 35% 30.15 in - SSE 5.8 mph - N/A   Clear
2:00 PM 52 °F - 24 °F 22%  in 6 mi SSE 5.8 mph - -   Clear
2:50 PM 53.6 °F - 24.8 °F 33% 30.12 in - South 3.5 mph - N/A   Clear
3:50 PM 53.6 °F - 24.8 °F 33% 30.12 in - Variable 2.3 mph - N/A   Clear
4:50 PM 51.8 °F - 23.0 °F 33% 30.12 in - Variable 1.2 mph - N/A   Clear
5:50 PM 42.8 °F 39.3 °F 24.8 °F 49% 30.12 in - SE 5.8 mph - N/A   Clear
6:50 PM 41.0 °F 39.0 °F 28.4 °F 61% 30.15 in - SE 3.5 mph - N/A   Clear
7:50 PM 39.2 °F - 26.6 °F 61% 30.15 in - Calm Calm - N/A   Clear
8:00 PM 39 °F - 27 °F 50%  in 12 mi Calm Calm - -  
8:50 PM 37.4 °F - 26.6 °F 65% 30.15 in - Variable 1.2 mph - N/A   Clear
9:50 PM 35.6 °F - 26.6 °F 70% 30.15 in - Calm Calm - N/A   Clear
10:50 PM 35.6 °F - 26.6 °F 70% 30.15 in - Calm Calm - N/A   Clear
11:50 PM 32.0 °F - 26.6 °F 80% 30.15 in - NW 1.2 mph - N/A   Clear